www.pogodaiklimat.ru

Погода и климат >> Архив погоды >> Россия >> Хабаровский край >> Чегдомын


ПОГОДА в Чегдомыне

  • Прогноз погоды в Чегдомыне
  • Монитор погоды в Чегдомыне

АРХИВ ПОГОДЫ в Чегдомыне

Время (UTC), дата Ветер
(напр.,м/с)
 
Видим.   Явления Облачность Т
(С)
Тd
(С)
f
(%)
Тe
(С)
Тes
(С)
Комфортность P
(гПа)
Po
(гПа)
Тmin
(С)
Tmax
(С)
R
(мм)
R24
(мм)
S
(см)
21 16.09 С 1 50 км ясно -3.6 -3.6 100 -6 -6 1016.5 970.2 -3.7
00 17.09 С 1 50 км ясно +5.1 -0.4 68 +4 +9 1014.7 969.9
03 17.09 З 1 50 км 10/1 1000 м
[Cb cap Ac As Ci]
+12.9 -0.4 40 +13 +18 1010.4 967.0
06 17.09 Ю 2 50 км 10/6 1000 м
[Cb cap Ac trans Ci]
+16.8 -1.1 29 +17 +18 1006.7 964.0
09 17.09 Ю 3 50 км 10/8 600 м
[Cb cap Ci]
+13.9 +0.9 41 +13 +13 1005.7 962.7 +18.9
12 17.09 Ю 3 50 км в посл. час ливневой дождь 10/10 600 м
[Cb cap]
+10.7 +4.0 63 +9 +9 1005.6 962.1
18 17.09 Ю 1 10 км 10/10 600 м
[Cb cap]
+10.6 +2.6 58 +11 +11 1001.9 958.5
21 17.09 Ю 2 50 км слаб. ливневой дождь 10/10 600 м
[Cb cap]
+9.5 +2.9 63 +8 +8 1000.7 957.2 +9.4 0.4
00 18.09 С 1 50 км 10/10 600 м
[Cb cap]
+10.3 +4.1 65 +10 +10 998.5 955.2 +8.8
03 18.09 Ю 3 20 км слаб. ливневой дождь 10/10 600 м
[Cb cap]
+3.2 +3.0 99 -1 -1 999.3 955.0
06 18.09 ЮЗ 1 500 м ливневой снег 10/10 600 м
[Cb cap]
+1.2 +0.7 96 -1 -1 1002.0 956.8
09 18.09 ЮЗ 1 200 м {ливн. осадки} 10/10 600 м
[Cb cap]
+0.4 +0.2 99 -2 -2 1002.1 959.1 +10.8 7
12 18.09 ЮЗ 1 10 км сильн. ливневой дождь 10/10 600 м
[Cb cap]
+10.0 +10.0 100 +9 +9 1003.0 960.1
15 18.09 штиль 0 10 км сильн. ливневой дождь 10/10 600 м
[Cb cap]
+0.8 +0.3 96 -1 -1 1001.5 958.8
18 18.09 штиль 0 10 км сильн. ливневой дождь 10/10 600 м
[Cb cap]
+1.0 +10.0 100 -0 -0 1001.2 958.7
21 18.09 штиль 0 10 км {ливн. осадки} 10/10 600 м
[Cb cap]
+0.8 +0.3 96 -1 -1 1002.6 960.3 +1.9 4
00 19.09 штиль 0 10 км в посл. час туман {ливн. осадки} 10/10 600 м
[Cb cap]
+3.5 +3.3 99 +2 +2 1007.4 962.7 -1.9
03 19.09 Ю 1 50 км 10/4 1000 м
[Cb cap Ci]
+10.3 +5.3 71 +10 +15 1006.7 963.1
06 19.09 С 2 50 км 10/3 1000 м
[Cb cap Ci]
+15.1 +4.0 47 +15 +17 1006.5 963.6
09 19.09 З 1 50 км 10/0
[Ac As Ci]
+10.8 +4.5 65 +11 +11 1008.9 965.3 +15.7
12 19.09 З 1 50 км 3/0
[Ci fib]
+7.1 +3.3 77 +6 +6 1011.7 967.4
15 19.09 ЮВ 1 50 км 1/0
[Ci fib]
+3.2 +2.9 98 +1 +1 1013.8 968.8
18 19.09 штиль 0 50 км ясно -0.1 -0.1 100 -2 -2 1015.2 969.6
21 19.09 штиль 0 50 км ясно -1.9 -1.9 100 -3 -3 1016.9 970.9 -1.9
00 20.09 С 1 500 м туман ?/? +3.3 +2.9 97 +2 +2 1017.3 972.2 -1.9
03 20.09 ЮЗ 1 50 км {туман} 3/1 1000 м
[Cu hum Ci]
+11.6 +3.3 57 +12 +20 1015.6 971.8
06 20.09 З 1 50 км 10/1 1000 м
[Cu hum Ci]
+14.9 +1.9 41 +16 +19 1014.2 970.9
09 20.09 В 1 50 км 10/1 1000 м
[Cu hum Ci]
+10.8 +3.4 60 +11 +11 1015.4 971.5 +16.3
12 20.09 ЮВ 1 50 км 10/0
[Ci]
+7.2 +3.8 79 +6 +6 1017.0 972.5
15 20.09 штиль 0 50 км 10/0
[Ac As Ci]
+4.7 +4.3 97 +4 +4 1017.8 972.9
18 20.09 штиль 0 50 км 10/8 600 м
[Cb cap Ci]
+5.6 +4.4 92 +5 +5 1017.8 973.0
21 20.09 ЮВ 1 50 км 10/10 600 м
[Cb cap]
+5.2 +4.8 97 +4 +4 1017.7 972.9 +4.6
03 21.09 СЗ 1 50 км 10/10 600 м
[Cb cap]
+11.5 +7.3 75 +11 +11 1017.0 973.2
09 21.09 С 1 50 км в посл. час ливневой дождь 10/8 1000 м
[Cb cap Ci]
+9.3 +8.6 95 +9 +9 1017.6 973.4 +12.2 0.5
12 21.09 ЮЗ 1 20 км {ливн. осадки} 10/10 600 м
[Cb cap]
+7.8 +7.8 100 +7 +7 1019.6 975.1
15 21.09 штиль 0 20 км 10/10 600 м
[Cb cap]
+6.4 +6.4 100 +5 +5 1020.4 975.6
18 21.09 штиль 0 20 км 10/10 600 м
[Cb cap]
+5.4 +5.4 100 +4 +4 1021.1 976.1
21 21.09 Ю 1 10 км 3/3 1000 м
[Cb cap]
+2.4 +2.4 100 0 0 1022.4 976.8 +2.4 1
00 22.09 Ю 1 50 км 4/3 600 м
[Cb cap Ci]
+7.7 +5.0 83 +7 +10 1022.6 977.9 +2.4
03 22.09 СВ 1 50 км ясно +12.5 +2.0 49 +13 +22 1021.1 977.1
09 22.09 В 1 50 км ясно +12.5 +3.7 55 +13 +13 1019.3 975.5 +16.4
15 22.09 СВ 1 50 км ясно +3.6 +3.2 97 +2 +2 1019.7 974.5
21 22.09 штиль 0 50 км ясно +0.4 +0.4 100 -1 -1 1016.6 970.9 +0.2
09 23.09 СВ 1 20 км слаб. ливневой дождь 10/10 600 м
[Cb cap]
+9.8 +9.3 97 +9 +9 1008.6 964.9 +17.2 2
12 23.09 ЮЗ 1 50 км {ливн. осадки} 4/4 1000 м
[Cb cap]
+7.3 +5.7 90 +6 +6 1009.0 964.8

 

Местоположение метеостанции Чегдомын (Хабаровский край, Россия): широта 51.17 долгота 132.90 высота над уровнем моря 374 м.

В архиве по умолчанию представлена погода в Чегдомыне за последнюю неделю. Архивные данные за месяц целиком и за предыдущие месяцы, начиная с января 2011 года, Вы можете получить, выбрав интересующий диапазон дат из раскрывающегося списка и нажав кнопку "Ввод!".


*Определитесь, кто Вы:
робот инопланетянин человек

Внимание! Время в таблицах - всемирное. Для получения местного времени необходимо прибавить поправку, которая равна 10 ч.

Смотрите также архив погоды в соседних городах и на ближайших метеорологических станциях:

Погода в Усть-Умальте (Хабаровский край, Россия) (55 км)
Погода в Чекунде (Хабаровский край, Россия) (59 км)
Погода в Верховье Урми (Хабаровский край, Россия) (132 км)
Погода в Сутуре (Хабаровский край, Россия) (135 км)
Погода в Софийском Прииске (Хабаровский край, Россия) (140 км)
Погода в Хуларине (Хабаровский край, Россия) (149 км)
Погода в Сектагли (Хабаровский край, Россия) (157 км)
Погода в Куре (Хабаровский край, Россия) (183 км)
Погода в Урми (Хабаровский край, Россия) (198 км)
Погода в Стойбе (Амурская область, Россия) (199 км)

Пояснения к столбцам:

Ветер - указаны скорость ветра в м/с - средняя за 10 мин, порывы в срок и между сроками (в фигурных скобках) и направление, откуда дует ветер: С - северный, СВ - северо-восточный, В - восточный, ЮВ - юго-восточный, Ю - южный, ЮЗ - юго-западный, З - западный, СЗ - северо-западный.
Видимость - горизонтальная дальность видимости в метрах или километрах. При видимости от 1 до 10 км при отсутствии осадков обычно наблюдается дымка, при ухудшении видимости до 1 км и менее - туман. В сухую погоду видимость может ухудшаться дымом, пылью или мглою.
Явления - указаны атмосферные явления, наблюдавшиеся в срок или в последний час перед сроком; фигурными скобками обозначены явления, наблюдавшиеся между сроками (за 1-3 часа до срока); квадратными скобками обозначены град или гололедные отложения с указанием их диаметра в мм.
Облачность - указаны через наклонную черту общая и нижняя облачность в баллах и высота нижней границы облаков в метрах; квадратными скобками обозначены формы облаков: Ci - перистые, Cs - перисто-слоистые, Cc - перисто-кучевые, Ac - высококучевые, As - высокослоистые, Sc - слоисто-кучевые, Ns - слоисто-дождевые, Cu - кучевые, Cb - кучево-дождевые. Подробнее классификацию облаков см. в Атласе облаков (PDF).
T - Температура воздуха - температура, измеренная на высоте 2 м над землей.
Td - Температура точки росы - температура, при понижении до которой содержащийся в воздухе водяной пар достигнет насыщения.
f - Относительная влажность воздуха - влажноcть воздуха, измеренная на высоте 2 м над землей.
Te - Эффективная температура - температура, которую ощущает одетый по сезону человек в тени. Характеристика душности погоды. При расчете учитывается влияние влажности воздуха и скорости ветра на теплоощущения человека.
Tes - Эффективная температура на солнце - температура, которую ощущает человек, с поправкой на солнечный нагрев. Характеристика знойности погоды. Зависит от высоты солнца над горизонтом, облачности и скорости ветра. Ночью, в пасмурную погоду, а также при ветре 12 м/с и более поправка равна нулю.
P - Атмосферное давление - приведенное к уровню моря атмосферное давление.
Po - Атмосферное давление - измеренное на уровне метеостанции атмосферное давление.
Tmin - Минимальная температура - минимум температуры воздуха на высоте 2 м над землей.
Tmax - Максимальная температура - максимум температуры воздуха на высоте 2 м над землей.
R - Количество осадков - Количество выпавших осадков за период времени, мм. При наведении курсора мыши на число - период времени, за который выпало указанное количество осадков.
R24 - Количество осадков - Количество выпавших осадков за 24 часа, мм.
S - Снежный покров - Высота снежного покрова, см. При наведении курсора мыши на число - состояние снежного покрова и степень покрытия местности в баллах.